Regional Weather Roundup
Issued by NWS Northern Indiana

Home | Current Version | Previous Version | Text Only | Print | Product List | Glossary Off
Versions: 1 2 3 4 5 6 7 8 9 10 11 12 13 14 15 16 17 18 19 20 21 22 23 24 25 26 27 28 29 30 31 32 33 34 35 36 37 38 39 40 41 42 43 44 45 46 47 48 49 50

000
ASUS43 KIWX 292100
RWRIWX

KIWX WEATHER ROUNDUP
NATIONAL WEATHER SERVICE NORTHERN INDIANA
500 PM EDT MON JUN 29 2015

NOTE: "FAIR" INDICATES FEW OR NO CLOUDS BELOW 12,000 FEET WITH NO
SIGNIFICANT WEATHER AND/OR OBSTRUCTIONS TO VISIBILITY.

* THESE STATIONS ARE NOT UNDER NWS QUALITY CONTROL. THEY ALSO MAY NOT
  REPORT WEATHER SUCH AS PRECIPITATION OR FOG.

INZ001>027-292200-
NORTHERN INDIANA

CITY           SKY/WX    TMP DP  RH WIND       PRES   REMARKS
VALPARAISO     PTSUNNY   70  62  76 CALM      29.81S
SOUTH BEND     CLOUDY    68  62  81 E10       29.82F
ELKHART*       CLOUDY    66  61  82 E7        29.83F
GOSHEN         CLOUDY    65  60  84 E10       29.83S
ANGOLA*        CLOUDY    63  54  72 SE8       29.85F
FORT WAYNE     CLOUDY    64  60  87 E7        29.83F

$$
INZ028>050-292200-
CENTRAL INDIANA

CITY           SKY/WX    TMP DP  RH WIND       PRES   REMARKS
LAFAYETTE      PTSUNNY   71  63  75 CALM      29.79F
KOKOMO*        CLOUDY    73  63  68 NE5       29.79F
MUNCIE*        CLOUDY    72  63  73 MISG      29.80F
INDIANAPOLIS   MOSUNNY   76  63  64 W13       29.78F

$$
MIZ043>046-050>051-056>058-064>065-071>073-077>080-292200-
SOUTHWEST LOWER MICHIGAN

CITY           SKY/WX    TMP DP  RH WIND       PRES   REMARKS
BATTLE CREEK   PTSUNNY   72  59  63 S10       29.84S
BENTON HARBOR  PTSUNNY   72  62  71 SE7       29.81F
COLDWATER*     LGT RAIN  65  55  71 SE8G16    29.85S
HILLSDALE*     CLOUDY    65  58  77 SE8       29.86F
HOLLAND        CLOUDY    70  61  73 SW10      29.82F
GRAND RAPIDS   MOSUNNY   74  59  59 SE15      29.82F
KALAMAZOO      PTSUNNY   73  60  63 S13G20    29.83F
STURGIS*       LGT RAIN  63  59  88 E8        29.84S
THREE RIVERS*  CLOUDY    67  58  72 SE10      29.85S

$$
OHZ001>008-015>018-024>025-292200-
NORTHWEST OHIO

CITY           SKY/WX    TMP DP  RH WIND       PRES   REMARKS
DEFIANCE       CLOUDY    62  59  90 E9G24     29.85F
FINDLAY        CLOUDY    63  59  87 SE13      29.83F
TOLEDO EXPRESS CLOUDY    65  57  75 SE6       29.85F
TOLEDO METCALF CLOUDY    67  58  72 SE7       29.87S
LIMA           LGT RAIN  62  61  96 E8        29.82F FOG

$$
AND FOR LAKE MICHIGAN COASTAL AND OPEN LAKE BUOY OBSERVATIONS

STATION/POSITION TEMP    WIND        PRES    VSBY  WAVE
                 AIR SEA DIR/SP/G                  HT/PER
                 (F)     (DEG/KT/KT) (MB)    (MI)  (FT/S)
CALUMET HARBOR    68      60/  5/  6   N/A
MICHIGAN CITY     67     350/  8/  9   N/A
BURNS HARBOR      70     140/  2/  7 1010.2F
SAINT JOSEPH      69     170/  2/  4 1010.8R
4 MI NW BRIDGMAN  67 64                N/A           0
MICHIGAN CITY     66 66   40/  4/  6   N/A           0

$$
&&


USA.gov is the U.S. government's official web portal to all federal, state and local government web resources and services.